Regional Weather Roundup
Issued by NWS Upton, NY

Current Version | Previous Version | Text Only | Print | Product List | Glossary Off
Versions: 1 2 3 4 5 6 7 8 9 10 11 12 13 14 15 16 17 18 19 20 21 22 23 24 25 26 27 28 29 30 31 32 33 34 35 36 37 38 39 40 41 42 43 44 45 46 47 48 49 50
000 ASUS41 KOKX 282305 RWROKX REGIONAL WEATHER ROUNDUP NATIONAL WEATHER SERVICE NEW YORK NY 600 PM EST WED JAN 28 2015 NOTE: "FAIR" INDICATES FEW OR NO CLOUDS BELOW 12,000 FEET WITH NO SIGNIFICANT WEATHER AND/OR OBSTRUCTIONS TO VISIBILITY. NYZ071-072-176-178-NJZ106-104-290000- NEW YORK CITY METRO AREA CITY SKY/WX TMP DP RH WIND PRES REMARKS CENTRAL PARK CLEAR 32 3 29 VRB3 30.18R LAGUARDIA APRT CLEAR 32 11 41 N9 30.16R WCI 24 KENNEDY INTL CLEAR 30 9 41 N9 30.17R WCI 22 NEWARK/LIBERTY PTCLDY 30 6 36 NW8 30.18R WCI 22 BRNX BOT. GARD N/A N/A N/A N/A NW1 30.18R TETERBORO CLEAR 31 1 28 NW9 30.17R WCI 23 $$ NYZ177-179-078>081-290000- LONG ISLAND NEW YORK CITY SKY/WX TMP DP RH WIND PRES REMARKS FARMINGDALE CLEAR 30 8 39 N12 30.15R WCI 20 ISLIP CLEAR 27 8 44 N16 30.12R WCI 15 SHIRLEY CLEAR 27 9 46 N13 30.14R WCI 16 WESTHAMPTON CLEAR 26 10 50 NW12 30.13R WCI 16 MONTAUK POINT N/A 28 12 51 N7 30.12R WCI 21 $$ NYZ052-065-067-290000- HUDSON VALLEY CITY SKY/WX TMP DP RH WIND PRES REMARKS WHITE PLAINS CLEAR 27 4 37 NW13 30.13R WCI 16 NEWBURGH CLEAR 25 7 46 N9 30.16R WCI 15 MONTGOMERY CLEAR 20 6 55 NW5 30.15R WCI 13 POUGHKEEPSIE CLEAR 25 4 40 NW5 30.18R WCI 19 ALBANY CLEAR 19 -1 41 N8 30.22R WCI 9 $$ NJZ001-105-106-008-010-013-015-019>022-104-290000- NEW JERSEY CITY SKY/WX TMP DP RH WIND PRES REMARKS NEWARK/LIBERTY PTCLDY 30 6 36 NW8 30.18R WCI 22 TETERBORO CLEAR 31 1 28 NW9 30.17R WCI 23 CALDWELL CLEAR 29 -1 27 NW3 30.18R MORRISTOWN CLEAR 28 5 37 NW3 30.18R SOMERVILLE CLEAR 29 1 30 NW3 30.17R SUSSEX CLEAR 29 -3 25 N3 30.17R ANDOVER N/A 26 -1 31 N6 30.17R WCI 19 TRENTON CLEAR 30 0 27 NW8 30.18R WCI 22 MILLVILLE CLEAR 29 5 36 NW8 30.20R WCI 21 ATLANTIC CITY CLEAR 27 7 42 NW8 30.19R WCI 19 WRIGHTSTOWN CLEAR 28 5 38 NW12 30.16R WCI 18 TOMS RIVER CLEAR 27 10 50 NW8 30.18R WCI 18 BELMAR CLEAR 28 7 40 NW12 30.16R WCI 18 $$ PAZ047>061-062-071-290000- EASTERN PENNSYLVANIA CITY SKY/WX TMP DP RH WIND PRES REMARKS PHILADELPHIA CLEAR 32 3 29 NW9 30.22R WCI 24 ALLENTOWN CLEAR 28 3 34 NW14 30.20R WCI 17 SCRANTON CLEAR 25 3 38 NW16G26 30.19R WCI 12 $$ CTZ002-004>006-009-010-012-RIZ004-006-007-MAZ004-011-015-290000- SOUTHERN NEW ENGLAND IN CT CITY SKY/WX TMP DP RH WIND PRES REMARKS BRADLEY INTL CLEAR 25 3 38 N13 30.12R WCI 14 HARTFORD CLEAR 26 5 40 NW7 30.14R WCI 18 DANBURY CLEAR 25 0 33 N8G18 30.15R WCI 16 WTRBRY/OXFORD NOT AVBL BRIDGEPORT CLEAR 26 5 40 NW12G20 30.14R WCI 16 MERIDEN CLEAR 25 5 42 NW13 30.14R WCI 14 NEW HAVEN CLEAR 26 6 42 NW13 30.13R WCI 15 CHESTER FAIR 27 9 46 N14 30.09R WCI 15 GROTON CLEAR 23 9 55 NW9 30.10R WCI 13 WILLIMANTIC CLEAR 23 8 52 NW6 30.10R WCI 16 IN RI CITY SKY/WX TMP DP RH WIND PRES REMARKS PROVIDENCE CLEAR 24 8 50 N6 30.10R WCI 17 BLOCK ISLAND CLEAR 25 9 50 N12 30.08R WCI 14 WESTERLY CLEAR 22 8 55 N6 30.11R WCI 14 IN MA CITY SKY/WX TMP DP RH WIND PRES REMARKS BOSTON PTCLDY 23 9 55 NW8 30.09R WCI 14 WORCESTER CLEAR 20 5 52 NW17G24 30.03R WCI 5 WESTFIELD CLEAR 23 2 40 NW14 30.13R WCI 11 PROVINCETOWN CLOUDY 27 14 59 NW15G23 30.07R WCI 15 NANTUCKET CLOUDY 24 15 68 NW12 30.07R WCI 13 $$ ANZ330-335-338-340-345-350-353-355-290000- COASTAL MARINE OBSERVATIONS STATION/POSITION TIME SKY/WX TEMP WIND PRES VSBY WAVE AIR SEA DIR/SP/G HT/PER (UTC) (F) (DEG/KT/KT) (MB) (MI) (FT/S) NY HARB ENTRANCE 2300 34 40 320/ 16/ 19 1020.5 3/12 4S FIRE IS 2300 37 N/A 3/12 20S FIRE ISLAND 2200 42 1019.2 4/ 4 23SW MTP 2300 N/A 4/12 HUDSON CANYON NOT AVBL EXECUTION ROCKS 2300 32 34 330/ 8/ 10 N/A WESTERN LI SOUND 2300 32 340/ 14/ 19 N/A 1/ 2 CENTRAL LI SOUND 2300 28 35 330/ 17/ 21 N/A 2/ 3 EASTERN LI SOUND NOT AVBL ROBBINS REEF 2300 32 330/ 11/ 13 1020.1 $$ >>>>>>>>>>>>>>>>>>>>>>>>>>>> KEY <<<<<<<<<<<<<<<<<<<<<<<<<<< > < > SKY/WX - SKY CONDITION/PRESENT WEATHER < > TMP - TEMPERATURE IN FAHRENHEIT < > DP - DEWPOINT IN FAHRENHEIT < > RH - RELATIVE HUMIDITY IN PERCENT < > WIND - DIRECTION AND SPEED IN MPH < > PRES - MEAN SEA LEVEL PRESSURE IN INCHES OF HG < > WCI - WIND CHILL INDEX < > VSB - VISIBILITY IN MILES < > HX - HEAT INDEX < > TC - TEMPERATURE IN CELSIUS < > VRB - VARIABLE WIND DIRECTION < > < >>>>>>>>>>>>>>>>>>>>>>>>>>>> KEY <<<<<<<<<<<<<<<<<<<<<<<<<<<

USA.gov is the U.S. government's official web portal to all federal, state and local government web resources and services.